Location: Wald
(31.7579°N, 86.6655°W)
Time: 21:17:27
(UTC+00:00)

SL-16 R/B - Pass Details

Date: 14 July 2020
Orbit: 840 x 850 km, 71.0° (Epoch: 13 August)

Event Time Altitude Azimuth Distance (km) Brightness Sun altitude
Exits shadow 03:51:35 28° 242° (WSW) 1,545 3.5 -29.3°
Maximum altitude 03:54:04 43° 294° (WNW) 1,171 3.2 -29.6°
Drops below altitude 10° 03:59:27 10° 5° (N) 2,473 5.2 -30.1°
Sets 04:02:02 0° 13° (NNE) 3,413 6.0 -30.4°
